Time,TemperatureF,DewpointF,PressureIn,WindDirection,WindDirectionDegrees,WindSpeedMPH,WindSpeedGustMPH,Humidity,HourlyPrecipIn,Conditions,Clouds,dailyrainin,SoftwareType,DateUTC
2013-06-09 00:02:00,57.4,43.6,30.03,West,275,0.0,0.0,60,0.00,-RA,OVC,0.00,WeatherDisplay:10.37,2013-06-09 06:02:00,
2013-06-09 00:07:00,57.1,43.8,30.03,West,275,0.0,0.0,61,0.00,-RA,OVC,0.00,WeatherDisplay:10.37,2013-06-09 06:07:00,
2013-06-09 00:12:00,56.9,44.0,30.03,West,275,0.0,0.0,62,0.00,-RA,OVC,0.00,WeatherDisplay:10.37,2013-06-09 06:12:00,
2013-06-09 00:17:00,56.7,44.2,30.03,West,275,0.0,0.0,63,0.00,-RA,OVC,0.00,WeatherDisplay:10.37,2013-06-09 06:17:00,
2013-06-09 00:22:00,56.4,44.0,30.03,West,275,0.0,0.0,63,0.00,-RA,OVC,0.00,WeatherDisplay:10.37,2013-06-09 06:22:00,
2013-06-09 00:27:00,56.2,43.8,30.03,West,275,0.0,0.0,63,0.00,-RA,OVC,0.00,WeatherDisplay:10.37,2013-06-09 06:27:00,
2013-06-09 00:32:00,55.9,43.9,30.03,West,275,1.0,1.0,64,0.00,-RA,OVC,0.00,WeatherDisplay:10.37,2013-06-09 06:32:00,
2013-06-09 00:37:00,55.7,43.7,30.03,West,275,0.0,0.0,64,0.00,-RA,OVC,0.00,WeatherDisplay:10.37,2013-06-09 06:37:00,
2013-06-09 00:42:00,55.5,43.9,30.03,West,275,0.0,0.0,65,0.00,-RA,OVC,0.00,WeatherDisplay:10.37,2013-06-09 06:42:00,
2013-06-09 00:47:00,55.4,43.8,30.03,West,275,0.0,0.0,65,0.00,-RA,OVC,0.00,WeatherDisplay:10.37,2013-06-09 06:47:00,
2013-06-09 00:52:00,55.2,44.0,30.03,West,275,0.0,0.0,66,0.00,-RA,OVC,0.00,WeatherDisplay:10.37,2013-06-09 06:52:00,
2013-06-09 00:57:00,55.0,43.8,30.03,West,275,0.0,0.0,66,0.00,-RA,OVC,0.00,WeatherDisplay:10.37,2013-06-09 06:57:00,
2013-06-09 01:02:00,54.8,44.0,30.03,West,275,0.0,0.0,67,0.00,-RA,OVC,0.00,WeatherDisplay:10.37,2013-06-09 07:02:00,
2013-06-09 01:07:00,54.7,44.3,30.08,West,275,0.0,0.0,68,0.00,-RA,OVC,0.00,WeatherDisplay:10.37,2013-06-09 07:07:00,
2013-06-09 01:12:00,54.5,44.2,30.08,West,275,0.0,0.0,68,0.00,-RA,OVC,0.00,WeatherDisplay:10.37,2013-06-09 07:12:00,
2013-06-09 01:17:00,54.4,44.4,30.07,West,275,0.0,0.0,69,0.00,-RA,OVC,0.00,WeatherDisplay:10.37,2013-06-09 07:17:00,
2013-06-09 01:22:00,54.2,44.6,30.07,West,275,0.0,0.0,70,0.00,-RA,OVC,0.00,WeatherDisplay:10.37,2013-06-09 07:22:00,
2013-06-09 01:27:00,54.2,44.6,30.07,West,275,0.0,0.0,70,0.00,-RA,OVC,0.00,WeatherDisplay:10.37,2013-06-09 07:27:00,
2013-06-09 01:32:00,54.1,44.5,30.07,West,275,0.0,0.0,70,0.00,-RA,OVC,0.00,WeatherDisplay:10.37,2013-06-09 07:32:00,
2013-06-09 01:37:00,53.9,44.3,30.07,West,275,0.0,0.0,70,0.00,-RA,OVC,0.00,WeatherDisplay:10.37,2013-06-09 07:37:00,
2013-06-09 01:42:00,53.8,44.2,30.07,West,275,0.0,0.0,70,0.00,-RA,OVC,0.00,WeatherDisplay:10.37,2013-06-09 07:42:00,
2013-06-09 01:47:00,53.7,44.9,30.07,West,275,0.0,0.0,72,0.00,-RA,OVC,0.00,WeatherDisplay:10.37,2013-06-09 07:47:00,
2013-06-09 01:52:00,53.7,44.5,30.07,West,275,0.0,0.0,71,0.00,-RA,OVC,0.00,WeatherDisplay:10.37,2013-06-09 07:52:00,
2013-06-09 01:57:00,53.6,44.8,30.07,West,275,0.0,0.0,72,0.00,-RA,OVC,0.00,WeatherDisplay:10.37,2013-06-09 07:57:00,
2013-06-09 02:02:00,53.6,44.0,30.07,West,275,0.0,0.0,70,0.00,-RA,OVC,0.00,WeatherDisplay:10.37,2013-06-09 08:02:00,
2013-06-09 02:07:00,53.4,44.2,30.07,West,275,0.0,0.0,71,0.00,-RA,OVC,0.00,WeatherDisplay:10.37,2013-06-09 08:07:00,
2013-06-09 02:12:00,53.3,44.1,30.07,West,275,0.0,0.0,71,0.00,-RA,OVC,0.00,WeatherDisplay:10.37,2013-06-09 08:12:00,
2013-06-09 02:17:00,53.1,43.9,30.07,West,275,0.0,0.0,71,0.00,-RA,OVC,0.00,WeatherDisplay:10.37,2013-06-09 08:17:00,
2013-06-09 02:22:00,53.0,43.8,30.07,West,275,0.0,0.0,71,0.00,-RA,OVC,0.00,WeatherDisplay:10.37,2013-06-09 08:22:00,
2013-06-09 02:27:00,52.8,44.0,30.07,West,275,0.0,0.0,72,0.00,-RA,OVC,0.00,WeatherDisplay:10.37,2013-06-09 08:27:00,
2013-06-09 02:32:00,52.6,43.8,30.07,West,275,0.0,0.0,72,0.00,-RA,OVC,0.00,WeatherDisplay:10.37,2013-06-09 08:32:00,
2013-06-09 02:37:00,52.4,43.6,30.07,West,275,0.0,0.0,72,0.00,-RA,OVC,0.00,WeatherDisplay:10.37,2013-06-09 08:37:00,
2013-06-09 02:42:00,52.3,43.9,30.07,West,275,0.0,0.0,73,0.00,-RA,OVC,0.00,WeatherDisplay:10.37,2013-06-09 08:42:00,
2013-06-09 02:47:00,52.1,43.7,30.07,West,275,0.0,0.0,73,0.00,-RA,OVC,0.00,WeatherDisplay:10.37,2013-06-09 08:47:00,
2013-06-09 02:52:00,51.9,43.5,30.07,West,275,0.0,0.0,73,0.00,-RA,OVC,0.00,WeatherDisplay:10.37,2013-06-09 08:52:00,
2013-06-09 02:57:00,51.7,43.7,30.07,West,275,0.0,0.0,74,0.00,-RA,OVC,0.00,WeatherDisplay:10.37,2013-06-09 08:57:00,
2013-06-09 03:02:00,51.5,43.5,30.07,West,275,1.1,0.0,74,0.00,-RA,OVC,0.00,WeatherDisplay:10.37,2013-06-09 09:02:00,
2013-06-09 03:07:00,51.4,43.4,30.07,West,275,0.0,0.0,74,0.00,-RA,OVC,0.00,WeatherDisplay:10.37,2013-06-09 09:07:00,
2013-06-09 03:12:00,51.3,43.3,30.07,West,275,0.0,0.0,74,0.00,-RA,OVC,0.00,WeatherDisplay:10.37,2013-06-09 09:12:00,
2013-06-09 03:17:00,51.0,43.4,30.07,West,275,0.0,0.0,75,0.00,-RA,OVC,0.00,WeatherDisplay:10.37,2013-06-09 09:17:00,
2013-06-09 03:22:00,50.9,43.6,30.06,West,275,0.0,0.0,76,0.00,-RA,OVC,0.00,WeatherDisplay:10.37,2013-06-09 09:22:00,
2013-06-09 03:27:00,50.7,43.4,30.06,West,275,0.0,0.0,76,0.00,-RA,OVC,0.00,WeatherDisplay:10.37,2013-06-09 09:27:00,
2013-06-09 03:32:00,50.5,43.2,30.06,West,275,0.0,0.0,76,0.00,-RA,OVC,0.00,WeatherDisplay:10.37,2013-06-09 09:32:00,
2013-06-09 03:37:00,50.4,43.1,30.06,West,275,0.0,0.0,76,0.00,-RA,OVC,0.00,WeatherDisplay:10.37,2013-06-09 09:37:00,
2013-06-09 03:42:00,50.3,43.0,30.06,West,275,1.1,0.0,76,0.00,-RA,OVC,0.00,WeatherDisplay:10.37,2013-06-09 09:42:00,
2013-06-09 03:47:00,50.3,43.4,30.06,West,275,0.0,0.0,77,0.00,-RA,OVC,0.00,WeatherDisplay:10.37,2013-06-09 09:47:00,
2013-06-09 03:52:00,50.1,43.2,30.06,West,275,0.0,0.0,77,0.00,-RA,OVC,0.00,WeatherDisplay:10.37,2013-06-09 09:52:00,
2013-06-09 03:57:00,50.0,43.1,30.06,West,275,0.0,0.0,77,0.00,-RA,OVC,0.00,WeatherDisplay:10.37,2013-06-09 09:57:00,
2013-06-09 04:02:00,49.9,43.0,30.06,West,275,0.0,0.0,77,0.00,-RA,OVC,0.00,WeatherDisplay:10.37,2013-06-09 10:02:00,
2013-06-09 04:07:00,49.8,42.9,30.06,West,275,0.0,0.0,77,0.00,-RA,OVC,0.00,WeatherDisplay:10.37,2013-06-09 10:07:00,
2013-06-09 04:12:00,49.7,42.8,30.06,West,275,0.0,0.0,77,0.00,-RA,OVC,0.00,WeatherDisplay:10.37,2013-06-09 10:12:00,
2013-06-09 04:17:00,49.7,42.8,30.06,West,275,0.0,0.0,77,0.00,-RA,OVC,0.00,WeatherDisplay:10.37,2013-06-09 10:17:00,
2013-06-09 04:22:00,49.7,42.8,30.06,West,275,0.0,0.0,77,0.00,-RA,OVC,0.00,WeatherDisplay:10.37,2013-06-09 10:22:00,
2013-06-09 04:27:00,49.7,43.1,30.06,West,275,0.0,0.0,78,0.00,-RA,OVC,0.00,WeatherDisplay:10.37,2013-06-09 10:27:00,
2013-06-09 04:32:00,49.8,42.5,30.06,West,275,0.0,0.0,76,0.00,-RA,OVC,0.00,WeatherDisplay:10.37,2013-06-09 10:32:00,
2013-06-09 04:37:00,50.0,42.7,30.06,West,275,0.0,0.0,76,0.00,-RA,OVC,0.00,WeatherDisplay:10.37,2013-06-09 10:37:00,
2013-06-09 04:42:00,50.0,42.4,30.06,West,275,0.0,0.0,75,0.00,-RA,OVC,0.00,WeatherDisplay:10.37,2013-06-09 10:42:00,
2013-06-09 04:47:00,50.0,42.4,30.06,West,275,0.0,0.0,75,0.00,-RA,OVC,0.00,WeatherDisplay:10.37,2013-06-09 10:47:00,
2013-06-09 04:52:00,50.2,42.2,30.06,West,275,0.0,0.0,74,0.00,-RA,OVC,0.00,WeatherDisplay:10.37,2013-06-09 10:52:00,
2013-06-09 04:57:00,50.3,42.0,30.06,West,275,0.0,0.0,73,0.00,-RA,OVC,0.00,WeatherDisplay:10.37,2013-06-09 10:57:00,
2013-06-09 05:02:00,50.3,42.0,30.06,West,275,0.0,0.0,73,0.00,-RA,OVC,0.00,WeatherDisplay:10.37,2013-06-09 11:02:00,
2013-06-09 05:07:00,50.3,42.3,30.06,West,275,0.0,0.0,74,0.00,-RA,OVC,0.00,WeatherDisplay:10.37,2013-06-09 11:07:00,
2013-06-09 05:12:00,50.2,41.9,30.06,West,275,0.0,0.0,73,0.00,-RA,OVC,0.00,WeatherDisplay:10.37,2013-06-09 11:12:00,
2013-06-09 05:17:00,50.0,41.7,30.06,West,275,0.0,0.0,73,0.00,-RA,OVC,0.00,WeatherDisplay:10.37,2013-06-09 11:17:00,
2013-06-09 05:22:00,49.8,41.8,30.06,West,275,0.0,0.0,74,0.00,-RA,OVC,0.00,WeatherDisplay:10.37,2013-06-09 11:22:00,
2013-06-09 05:27:00,49.5,41.9,30.06,West,275,0.0,0.0,75,0.00,-RA,OVC,0.00,WeatherDisplay:10.37,2013-06-09 11:27:00,
2013-06-09 05:32:00,49.2,42.0,30.06,West,275,0.0,0.0,76,0.00,-RA,OVC,0.00,WeatherDisplay:10.37,2013-06-09 11:32:00,
2013-06-09 05:37:00,48.9,42.0,30.06,West,275,0.0,0.0,77,0.00,-RA,OVC,0.00,WeatherDisplay:10.37,2013-06-09 11:37:00,
2013-06-09 05:42:00,48.7,41.8,30.06,West,275,0.0,0.0,77,0.00,-RA,OVC,0.00,WeatherDisplay:10.37,2013-06-09 11:42:00,
2013-06-09 05:47:00,48.6,42.0,30.06,West,275,0.0,0.0,78,0.00,-RA,OVC,0.00,WeatherDisplay:10.37,2013-06-09 11:47:00,
2013-06-09 05:52:00,48.4,41.9,30.06,West,275,0.0,0.0,78,0.00,-RA,OVC,0.00,WeatherDisplay:10.37,2013-06-09 11:52:00,
2013-06-09 05:57:00,48.3,42.1,30.06,West,275,0.0,0.0,79,0.00,-RA,OVC,0.00,WeatherDisplay:10.37,2013-06-09 11:57:00,
2013-06-09 06:02:00,48.3,42.4,30.06,West,275,0.0,0.0,80,0.00,-RA,OVC,0.00,WeatherDisplay:10.37,2013-06-09 12:02:00,
2013-06-09 06:07:00,48.4,42.8,30.06,West,275,0.0,0.0,81,0.00,-RA,OVC,0.00,WeatherDisplay:10.37,2013-06-09 12:07:00,
2013-06-09 06:12:00,48.5,42.9,30.06,West,275,0.0,0.0,81,0.00,-RA,OVC,0.00,WeatherDisplay:10.37,2013-06-09 12:12:00,
2013-06-09 06:17:00,48.7,43.1,30.06,West,275,0.0,0.0,81,0.00,-RA,OVC,0.00,WeatherDisplay:10.37,2013-06-09 12:17:00,
2013-06-09 06:22:00,49.0,43.4,30.06,West,275,0.0,0.0,81,0.00,-RA,OVC,0.00,WeatherDisplay:10.37,2013-06-09 12:22:00,
2013-06-09 06:27:00,49.5,43.6,30.06,West,275,0.0,0.0,80,0.00,-RA,OVC,0.00,WeatherDisplay:10.37,2013-06-09 12:27:00,
2013-06-09 06:32:00,50.1,43.8,30.06,West,275,0.0,0.0,79,0.00,-RA,OVC,0.00,WeatherDisplay:10.37,2013-06-09 12:32:00,
2013-06-09 06:37:00,50.6,44.0,30.06,West,275,0.0,0.0,78,0.00,-RA,OVC,0.00,WeatherDisplay:10.37,2013-06-09 12:37:00,
2013-06-09 06:42:00,51.1,44.5,30.06,West,275,0.0,0.0,78,0.00,-RA,OVC,0.00,WeatherDisplay:10.37,2013-06-09 12:42:00,
2013-06-09 06:47:00,51.8,45.5,30.06,West,275,0.0,0.0,79,0.00,-RA,OVC,0.00,WeatherDisplay:10.37,2013-06-09 12:47:00,
2013-06-09 06:52:00,52.9,46.2,30.06,West,275,0.0,0.0,78,0.00,-RA,OVC,0.00,WeatherDisplay:10.37,2013-06-09 12:52:00,
2013-06-09 06:57:00,53.9,46.5,30.06,West,275,0.0,0.0,76,0.00,-RA,OVC,0.00,WeatherDisplay:10.37,2013-06-09 12:57:00,
2013-06-09 07:02:00,55.0,46.9,30.06,West,275,0.0,0.0,74,0.00,-RA,OVC,0.00,WeatherDisplay:10.37,2013-06-09 13:02:00,
2013-06-09 07:07:00,56.1,46.1,30.06,West,275,3.5,3.5,69,0.00,-RA,OVC,0.00,WeatherDisplay:10.37,2013-06-09 13:07:00,
2013-06-09 07:12:00,57.0,45.7,30.08,West,275,2.3,2.3,66,0.00,-RA,OVC,0.00,WeatherDisplay:10.37,2013-06-09 13:12:00,
2013-06-09 07:17:00,57.7,46.0,30.08,West,275,0.0,0.0,65,0.00,-RA,OVC,0.00,WeatherDisplay:10.37,2013-06-09 13:17:00,
2013-06-09 07:22:00,58.4,46.3,30.08,West,275,1.1,0.0,64,0.00,-RA,OVC,0.00,WeatherDisplay:10.37,2013-06-09 13:22:00,
2013-06-09 07:27:00,59.0,46.0,30.08,West,275,0.0,0.1,62,0.00,-RA,OVC,0.00,WeatherDisplay:10.37,2013-06-09 13:27:00,
2013-06-09 07:32:00,59.6,45.7,30.08,West,275,1.1,1.1,60,0.00,-RA,OVC,0.00,WeatherDisplay:10.37,2013-06-09 13:32:00,
2013-06-09 07:37:00,60.4,46.9,30.08,West,275,0.0,0.0,61,0.00,-RA,OVC,0.00,WeatherDisplay:10.37,2013-06-09 13:37:00,
2013-06-09 07:42:00,61.1,46.2,30.08,West,275,0.0,0.0,58,0.00,-RA,OVC,0.00,WeatherDisplay:10.37,2013-06-09 13:42:00,
2013-06-09 07:47:00,61.6,45.7,30.08,West,275,1.1,0.0,56,0.00,-RA,OVC,0.00,WeatherDisplay:10.37,2013-06-09 13:47:00,
2013-06-09 07:52:00,62.1,45.2,30.08,West,275,3.0,3.0,54,0.00,-RA,OVC,0.00,WeatherDisplay:10.37,2013-06-09 13:52:00,
2013-06-09 07:57:00,62.5,44.1,30.08,West,275,2.3,2.3,51,0.00,-RA,OVC,0.00,WeatherDisplay:10.37,2013-06-09 13:57:00,
2013-06-09 08:02:00,62.7,44.3,30.08,West,275,1.1,0.0,51,0.00,-RA,OVC,0.00,WeatherDisplay:10.37,2013-06-09 14:02:00,
2013-06-09 08:07:00,63.2,43.2,30.08,West,275,2.3,2.3,48,0.00,-RA,OVC,0.00,WeatherDisplay:10.37,2013-06-09 14:07:00,
2013-06-09 08:12:00,63.5,44.0,30.08,NW,312,3.5,3.5,49,0.00,-RA,OVC,0.00,WeatherDisplay:10.37,2013-06-09 14:12:00,
2013-06-09 08:17:00,63.8,43.7,30.08,NW,315,4.6,4.6,48,0.00,-RA,OVC,0.00,WeatherDisplay:10.37,2013-06-09 14:17:00,
2013-06-09 08:22:00,64.2,44.6,30.08,NW,315,1.1,1.1,49,0.00,-RA,OVC,0.00,WeatherDisplay:10.37,2013-06-09 14:22:00,
2013-06-09 08:27:00,64.7,43.4,30.08,NW,315,3.5,3.5,46,0.00,-RA,OVC,0.00,WeatherDisplay:10.37,2013-06-09 14:27:00,
2013-06-09 08:32:00,65.0,43.1,30.08,NW,319,4.6,4.6,45,0.00,-RA,OVC,0.00,WeatherDisplay:10.37,2013-06-09 14:32:00,
2013-06-09 08:37:00,65.1,43.8,30.08,NW,324,3.5,3.5,46,0.00,-RA,OVC,0.00,WeatherDisplay:10.37,2013-06-09 14:37:00,
2013-06-09 08:42:00,65.0,45.9,30.09,NNW,331,4.6,4.6,50,0.00,-RA,OVC,0.00,WeatherDisplay:10.37,2013-06-09 14:42:00,
2013-06-09 08:47:00,65.2,46.1,30.09,NNW,333,3.5,3.5,50,0.00,-RA,OVC,0.00,WeatherDisplay:10.37,2013-06-09 14:47:00,
2013-06-09 08:52:00,65.6,45.9,30.09,NNW,335,4.6,4.6,49,0.00,-RA,OVC,0.00,WeatherDisplay:10.37,2013-06-09 14:52:00,
2013-06-09 08:57:00,65.9,45.6,30.09,NNW,336,5.8,5.8,48,0.00,-RA,OVC,0.00,WeatherDisplay:10.37,2013-06-09 14:57:00,
2013-06-09 09:02:00,66.3,46.0,30.09,NNW,336,1.1,1.1,48,0.00,-RA,OVC,0.00,WeatherDisplay:10.37,2013-06-09 15:02:00,
2013-06-09 09:07:00,67.0,45.5,30.09,NNW,343,5.8,5.8,46,0.00,-RA,OVC,0.00,WeatherDisplay:10.37,2013-06-09 15:07:00,
2013-06-09 09:12:00,67.5,44.2,30.09,NNW,333,4.6,4.6,43,0.00,-RA,OVC,0.00,WeatherDisplay:10.37,2013-06-09 15:12:00,
2013-06-09 09:17:00,67.9,45.2,30.09,NNW,336,4.6,4.6,44,0.00,-RA,OVC,0.00,WeatherDisplay:10.37,2013-06-09 15:17:00,
2013-06-09 09:22:00,68.4,45.6,30.09,NNW,336,1.1,2.0,44,0.00,-RA,OVC,0.00,WeatherDisplay:10.37,2013-06-09 15:22:00,
2013-06-09 09:27:00,69.1,45.7,30.09,NNW,336,3.5,3.5,43,0.00,-RA,OVC,0.00,WeatherDisplay:10.37,2013-06-09 15:27:00,
2013-06-09 09:32:00,69.6,45.5,30.09,NNW,336,3.5,3.5,42,0.00,-RA,OVC,0.00,WeatherDisplay:10.37,2013-06-09 15:32:00,
2013-06-09 09:37:00,70.1,46.6,30.09,NNW,345,1.1,1.1,43,0.00,-RA,OVC,0.00,WeatherDisplay:10.37,2013-06-09 15:37:00,
2013-06-09 09:42:00,71.0,45.5,30.09,NNW,345,2.3,2.8,40,0.00,-RA,OVC,0.00,WeatherDisplay:10.37,2013-06-09 15:42:00,
2013-06-09 09:47:00,71.4,45.8,30.09,NNW,345,3.5,3.5,40,0.00,-RA,OVC,0.00,WeatherDisplay:10.37,2013-06-09 15:47:00,
2013-06-09 09:52:00,71.8,44.8,30.09,NNW,345,3.5,3.5,38,0.00,-RA,OVC,0.00,WeatherDisplay:10.37,2013-06-09 15:52:00,
2013-06-09 09:57:00,72.1,45.1,30.09,NNW,348,3.5,3.5,38,0.00,-RA,OVC,0.00,WeatherDisplay:10.37,2013-06-09 15:57:00,
2013-06-09 10:02:00,72.4,46.0,30.09,North,5,3.5,3.5,39,0.00,-RA,OVC,0.00,WeatherDisplay:10.37,2013-06-09 16:02:00,
2013-06-09 10:07:00,72.7,44.9,30.09,North,5,4.0,4.0,37,0.00,-RA,OVC,0.00,WeatherDisplay:10.37,2013-06-09 16:07:00,
2013-06-09 10:12:00,72.6,46.2,30.09,North,9,3.5,3.5,39,0.00,-RA,OVC,0.00,WeatherDisplay:10.37,2013-06-09 16:12:00,
2013-06-09 10:17:00,72.9,46.5,30.09,North,5,2.3,2.3,39,0.00,-RA,OVC,0.00,WeatherDisplay:10.37,2013-06-09 16:17:00,
2013-06-09 10:22:00,73.7,46.5,30.09,North,11,1.1,1.1,38,0.00,-RA,OVC,0.00,WeatherDisplay:10.37,2013-06-09 16:22:00,
2013-06-09 10:27:00,74.6,48.0,30.09,North,9,2.3,2.3,39,0.00,-RA,OVC,0.00,WeatherDisplay:10.37,2013-06-09 16:27:00,
2013-06-09 10:32:00,75.3,46.5,30.06,North,5,3.5,3.5,36,0.00,-RA,OVC,0.00,WeatherDisplay:10.37,2013-06-09 16:32:00,
2013-06-09 10:37:00,76.1,45.7,30.06,North,360,1.1,1.1,34,0.00,-RA,OVC,0.00,WeatherDisplay:10.37,2013-06-09 16:37:00,
2013-06-09 10:42:00,76.6,45.3,30.06,North,360,3.5,3.5,33,0.00,-RA,OVC,0.00,WeatherDisplay:10.37,2013-06-09 16:42:00,
2013-06-09 10:47:00,77.2,44.2,30.06,North,360,3.5,3.5,31,0.00,-RA,OVC,0.00,WeatherDisplay:10.37,2013-06-09 16:47:00,
2013-06-09 10:52:00,77.8,43.9,30.06,North,355,4.6,4.6,30,0.00,-RA,OVC,0.00,WeatherDisplay:10.37,2013-06-09 16:52:00,
2013-06-09 10:57:00,77.9,44.8,30.06,NNE,17,5.8,5.8,31,0.00,-RA,OVC,0.00,WeatherDisplay:10.37,2013-06-09 16:57:00,
2013-06-09 11:02:00,78.0,44.9,30.06,NNE,12,3.5,3.5,31,0.00,-RA,OVC,0.00,WeatherDisplay:10.37,2013-06-09 17:02:00,
2013-06-09 11:07:00,78.3,41.6,30.06,North,5,3.5,3.5,27,0.00,-RA,OVC,0.00,WeatherDisplay:10.37,2013-06-09 17:07:00,
2013-06-09 11:12:00,78.8,42.0,30.06,North,360,4.6,4.6,27,0.00,-RA,OVC,0.00,WeatherDisplay:10.37,2013-06-09 17:12:00,
2013-06-09 11:17:00,79.3,42.4,30.06,North,355,3.5,3.5,27,0.00,-RA,OVC,0.00,WeatherDisplay:10.37,2013-06-09 17:17:00,
2013-06-09 11:22:00,79.6,40.7,30.06,North,5,2.3,2.3,25,0.00,-RA,OVC,0.00,WeatherDisplay:10.37,2013-06-09 17:22:00,
2013-06-09 11:27:00,80.1,40.0,30.06,NNE,19,3.5,3.5,24,0.00,-RA,OVC,0.00,WeatherDisplay:10.37,2013-06-09 17:27:00,
2013-06-09 11:32:00,79.9,38.8,30.06,NW,320,6.9,6.9,23,0.00,-RA,OVC,0.00,WeatherDisplay:10.37,2013-06-09 17:32:00,
2013-06-09 11:37:00,80.0,41.0,30.06,NNW,347,5.8,5.8,25,0.00,-RA,OVC,0.00,WeatherDisplay:10.37,2013-06-09 17:37:00,
2013-06-09 11:42:00,80.6,39.4,30.06,NNW,337,2.3,2.6,23,0.00,-RA,OVC,0.00,WeatherDisplay:10.37,2013-06-09 17:42:00,
2013-06-09 11:47:00,81.1,38.6,30.06,NNE,22,6.0,6.0,22,0.00,-RA,OVC,0.00,WeatherDisplay:10.37,2013-06-09 17:47:00,
2013-06-09 11:52:00,81.0,38.6,30.06,NNW,328,9.0,9.0,22,0.00,-RA,OVC,0.00,WeatherDisplay:10.37,2013-06-09 17:52:00,
2013-06-09 11:57:00,81.4,38.9,30.06,NNE,24,4.6,4.6,22,0.00,-RA,OVC,0.00,WeatherDisplay:10.37,2013-06-09 17:57:00,
2013-06-09 12:02:00,81.5,37.8,30.06,NNW,336,4.6,4.6,21,0.00,-RA,OVC,0.00,WeatherDisplay:10.37,2013-06-09 18:02:00,
2013-06-09 12:07:00,81.6,37.9,30.06,NNW,333,1.1,1.2,21,0.00,-RA,OVC,0.00,WeatherDisplay:10.37,2013-06-09 18:07:00,
2013-06-09 12:12:00,81.8,39.2,30.06,NW,311,6.0,6.0,22,0.00,-RA,OVC,0.00,WeatherDisplay:10.37,2013-06-09 18:12:00,
2013-06-09 12:17:00,81.9,36.9,30.06,NNW,327,6.9,6.9,20,0.00,-RA,OVC,0.00,WeatherDisplay:10.37,2013-06-09 18:17:00,
2013-06-09 12:22:00,82.0,37.0,30.06,NW,325,1.1,0.0,20,0.00,-RA,OVC,0.00,WeatherDisplay:10.37,2013-06-09 18:22:00,
2013-06-09 12:27:00,82.6,37.5,30.06,West,272,2.3,3.2,20,0.00,-RA,OVC,0.00,WeatherDisplay:10.37,2013-06-09 18:27:00,
2013-06-09 12:32:00,83.2,36.6,30.06,WSW,245,5.8,5.8,19,0.00,-RA,OVC,0.00,WeatherDisplay:10.37,2013-06-09 18:32:00,
2013-06-09 12:37:00,83.6,37.0,30.06,West,274,3.5,3.5,19,0.00,-RA,OVC,0.00,WeatherDisplay:10.37,2013-06-09 18:37:00,
2013-06-09 12:42:00,83.5,39.4,30.06,North,360,3.5,3.5,21,0.00,-RA,OVC,0.00,WeatherDisplay:10.37,2013-06-09 18:42:00,
2013-06-09 12:47:00,83.4,38.1,30.06,WNW,284,5.8,5.8,20,0.00,-RA,OVC,0.00,WeatherDisplay:10.37,2013-06-09 18:47:00,
2013-06-09 12:52:00,83.7,39.6,30.06,NW,309,3.5,3.5,21,0.00,-RA,OVC,0.00,WeatherDisplay:10.37,2013-06-09 18:52:00,
2013-06-09 12:57:00,84.5,37.7,30.06,West,267,4.6,4.6,19,0.00,-RA,OVC,0.00,WeatherDisplay:10.37,2013-06-09 18:57:00,
2013-06-09 13:02:00,84.4,37.6,30.06,NNW,328,4.6,4.6,19,0.00,-RA,OVC,0.00,WeatherDisplay:10.37,2013-06-09 19:02:00,
2013-06-09 13:07:00,84.2,37.5,30.06,NNW,338,5.8,5.8,19,0.00,-RA,OVC,0.00,WeatherDisplay:10.37,2013-06-09 19:07:00,
2013-06-09 13:12:00,84.3,38.9,30.06,North,5,4.0,4.0,20,0.00,-RA,OVC,0.00,WeatherDisplay:10.37,2013-06-09 19:12:00,
2013-06-09 13:17:00,84.5,37.7,30.06,North,5,1.1,1.4,19,0.00,-RA,OVC,0.00,WeatherDisplay:10.37,2013-06-09 19:17:00,
2013-06-09 13:22:00,85.0,39.4,30.06,NW,325,3.5,4.1,20,0.00,-RA,OVC,0.00,WeatherDisplay:10.37,2013-06-09 19:22:00,
2013-06-09 13:27:00,84.9,38.0,30.06,NW,319,3.5,3.5,19,0.00,-RA,OVC,0.00,WeatherDisplay:10.37,2013-06-09 19:27:00,
2013-06-09 13:32:00,84.8,37.9,30.06,WNW,298,5.8,5.8,19,0.00,-RA,OVC,0.00,WeatherDisplay:10.37,2013-06-09 19:32:00,
2013-06-09 13:37:00,84.8,39.3,30.06,NW,314,1.1,1.1,20,0.00,-RA,OVC,0.00,WeatherDisplay:10.37,2013-06-09 19:37:00,
2013-06-09 13:42:00,84.9,36.7,30.06,ENE,63,5.8,5.8,18,0.00,-RA,OVC,0.00,WeatherDisplay:10.37,2013-06-09 19:42:00,
2013-06-09 13:47:00,84.5,37.7,30.06,NNE,18,5.8,5.8,19,0.00,-RA,OVC,0.00,WeatherDisplay:10.37,2013-06-09 19:47:00,
2013-06-09 13:52:00,84.5,37.7,30.06,North,10,6.9,6.9,19,0.00,-RA,OVC,0.00,WeatherDisplay:10.37,2013-06-09 19:52:00,
2013-06-09 13:57:00,84.8,37.9,30.06,NE,38,6.9,6.9,19,0.00,-RA,OVC,0.00,WeatherDisplay:10.37,2013-06-09 19:57:00,
2013-06-09 14:02:00,84.6,40.4,30.06,NE,42,3.5,3.5,21,0.00,-RA,OVC,0.00,WeatherDisplay:10.37,2013-06-09 20:02:00,
2013-06-09 14:07:00,85.2,38.3,30.06,West,275,5.8,5.8,19,0.00,-RA,OVC,0.00,WeatherDisplay:10.37,2013-06-09 20:07:00,
2013-06-09 14:12:00,86.0,40.2,30.06,WNW,302,1.1,1.1,20,0.00,-RA,OVC,0.00,WeatherDisplay:10.37,2013-06-09 20:12:00,
2013-06-09 14:17:00,86.8,38.2,30.06,West,277,6.9,6.9,18,0.00,-RA,OVC,0.00,WeatherDisplay:10.37,2013-06-09 20:17:00,
2013-06-09 14:22:00,86.8,40.9,30.06,NW,321,2.3,2.3,20,0.00,-RA,OVC,0.00,WeatherDisplay:10.37,2013-06-09 20:22:00,
2013-06-09 14:27:00,86.9,36.8,30.06,NNW,330,4.6,4.6,17,0.00,-RA,OVC,0.00,WeatherDisplay:10.37,2013-06-09 20:27:00,
2013-06-09 14:32:00,86.6,38.0,30.06,NW,324,3.5,3.5,18,0.00,-RA,OVC,0.00,WeatherDisplay:10.37,2013-06-09 20:32:00,
2013-06-09 14:37:00,87.0,39.7,30.06,NW,317,4.6,4.6,19,0.00,-RA,OVC,0.00,WeatherDisplay:10.37,2013-06-09 20:37:00,
2013-06-09 14:42:00,87.5,37.3,30.06,NW,319,2.3,2.3,17,0.00,-RA,OVC,0.00,WeatherDisplay:10.37,2013-06-09 20:42:00,
2013-06-09 14:47:00,87.9,39.1,30.06,WNW,300,5.8,5.8,18,0.00,-RA,OVC,0.00,WeatherDisplay:10.37,2013-06-09 20:47:00,
2013-06-09 14:52:00,87.9,39.1,30.06,WNW,300,3.5,3.5,18,0.00,-RA,OVC,0.00,WeatherDisplay:10.37,2013-06-09 20:52:00,
2013-06-09 14:57:00,88.2,40.7,30.06,NNW,341,8.1,8.1,19,0.00,-RA,OVC,0.00,WeatherDisplay:10.37,2013-06-09 20:57:00,
2013-06-09 15:02:00,88.5,39.6,30.06,NNW,338,2.3,2.3,18,0.00,-RA,OVC,0.00,WeatherDisplay:10.37,2013-06-09 21:02:00,
2013-06-09 15:07:00,89.0,40.0,30.06,NNW,329,2.3,2.3,18,0.00,-RA,OVC,0.00,WeatherDisplay:10.37,2013-06-09 21:07:00,
2013-06-09 15:12:00,88.5,41.0,30.06,North,360,3.5,3.5,19,0.00,-RA,OVC,0.00,WeatherDisplay:10.37,2013-06-09 21:12:00,
2013-06-09 15:17:00,88.1,37.8,30.06,North,355,4.6,4.6,17,0.00,-RA,OVC,0.00,WeatherDisplay:10.37,2013-06-09 21:17:00,
2013-06-09 15:22:00,87.6,38.8,30.06,North,360,5.0,5.0,18,0.00,-RA,OVC,0.00,WeatherDisplay:10.37,2013-06-09 21:22:00,
2013-06-09 15:27:00,87.4,38.7,30.06,West,264,2.3,0.0,18,0.00,-RA,OVC,0.00,WeatherDisplay:10.37,2013-06-09 21:27:00,
2013-06-09 15:32:00,87.9,39.1,30.06,WSW,258,3.5,3.5,18,0.00,-RA,OVC,0.00,WeatherDisplay:10.37,2013-06-09 21:32:00,
2013-06-09 15:37:00,88.8,39.8,30.06,WSW,256,0.0,0.2,18,0.00,-RA,OVC,0.00,WeatherDisplay:10.37,2013-06-09 21:37:00,
2013-06-09 15:42:00,89.4,38.8,30.06,WSW,256,1.1,1.8,17,0.00,-RA,OVC,0.00,WeatherDisplay:10.37,2013-06-09 21:42:00,
2013-06-09 15:47:00,89.7,42.0,30.06,WSW,257,1.1,1.1,19,0.00,-RA,OVC,0.00,WeatherDisplay:10.37,2013-06-09 21:47:00,
2013-06-09 15:52:00,89.8,39.2,30.06,WNW,303,2.3,2.3,17,0.00,-RA,OVC,0.00,WeatherDisplay:10.37,2013-06-09 21:52:00,
2013-06-09 15:57:00,89.7,39.1,30.06,NNW,340,5.8,5.8,17,0.00,-RA,OVC,0.00,WeatherDisplay:10.37,2013-06-09 21:57:00,
2013-06-09 16:02:00,89.0,38.5,30.06,WSW,257,10.4,10.4,17,0.00,-RA,OVC,0.00,WeatherDisplay:10.37,2013-06-09 22:02:00,
2013-06-09 16:07:00,89.1,38.6,30.06,West,265,2.3,2.3,17,0.00,-RA,OVC,0.00,WeatherDisplay:10.37,2013-06-09 22:07:00,
2013-06-09 16:12:00,89.3,38.8,30.06,WNW,294,1.1,1.1,17,0.00,-RA,OVC,0.00,WeatherDisplay:10.37,2013-06-09 22:12:00,
2013-06-09 16:17:00,90.0,39.3,30.06,WNW,284,1.1,1.5,17,0.00,-RA,OVC,0.00,WeatherDisplay:10.37,2013-06-09 22:17:00,
2013-06-09 16:22:00,90.1,37.9,30.06,NW,319,3.5,3.5,16,0.00,-RA,OVC,0.00,WeatherDisplay:10.37,2013-06-09 22:22:00,
2013-06-09 16:27:00,90.1,40.9,30.06,NW,323,3.5,3.5,18,0.00,-RA,OVC,0.00,WeatherDisplay:10.37,2013-06-09 22:27:00,
2013-06-09 16:32:00,90.3,39.6,30.06,WNW,294,1.1,1.6,17,0.00,-RA,OVC,0.00,WeatherDisplay:10.37,2013-06-09 22:32:00,
2013-06-09 16:37:00,90.1,39.4,30.06,NW,323,5.8,5.8,17,0.00,-RA,OVC,0.00,WeatherDisplay:10.37,2013-06-09 22:37:00,
2013-06-09 16:42:00,89.7,39.1,30.06,West,275,2.3,2.3,17,0.00,-RA,OVC,0.00,WeatherDisplay:10.37,2013-06-09 22:42:00,
2013-06-09 16:48:00,90.0,40.8,30.06,West,275,3.5,3.5,18,0.00,-RA,OVC,0.00,WeatherDisplay:10.37,2013-06-09 22:48:00,
2013-06-09 16:53:00,90.3,38.0,30.06,West,275,4.6,4.6,16,0.00,-RA,OVC,0.00,WeatherDisplay:10.37,2013-06-09 22:53:00,
2013-06-09 16:58:00,90.1,39.4,30.06,WNW,295,2.3,2.3,17,0.00,-RA,OVC,0.00,WeatherDisplay:10.37,2013-06-09 22:58:00,
2013-06-09 17:03:00,90.1,39.4,30.06,WNW,295,2.3,2.3,17,0.00,-RA,OVC,0.00,WeatherDisplay:10.37,2013-06-09 23:03:00,
2013-06-09 17:08:00,89.8,39.2,30.06,West,279,3.0,3.0,17,0.00,-RA,OVC,0.00,WeatherDisplay:10.37,2013-06-09 23:08:00,
2013-06-09 17:13:00,89.9,39.2,30.06,WNW,292,1.1,1.1,17,0.00,-RA,OVC,0.00,WeatherDisplay:10.37,2013-06-09 23:13:00,
2013-06-09 17:18:00,90.2,37.9,30.06,WNW,292,2.3,2.3,16,0.00,-RA,OVC,0.00,WeatherDisplay:10.37,2013-06-09 23:18:00,
2013-06-09 17:23:00,90.5,38.2,30.06,WNW,302,3.5,3.5,16,0.00,-RA,OVC,0.00,WeatherDisplay:10.37,2013-06-09 23:23:00,
2013-06-09 17:28:00,90.2,39.5,30.06,NNE,21,4.6,4.6,17,0.00,-RA,OVC,0.00,WeatherDisplay:10.37,2013-06-09 23:28:00,
2013-06-09 17:33:00,90.0,39.3,30.06,NNE,20,2.3,2.3,17,0.00,-RA,OVC,0.00,WeatherDisplay:10.37,2013-06-09 23:33:00,
2013-06-09 17:38:00,90.0,39.3,30.06,NNE,30,2.3,0.0,17,0.00,-RA,OVC,0.00,WeatherDisplay:10.37,2013-06-09 23:38:00,
2013-06-09 17:43:00,90.1,39.4,30.06,NNE,24,3.5,3.5,17,0.00,-RA,OVC,0.00,WeatherDisplay:10.37,2013-06-09 23:43:00,
2013-06-09 17:48:00,90.2,39.5,30.06,NNE,24,1.1,1.1,17,0.00,-RA,OVC,0.00,WeatherDisplay:10.37,2013-06-09 23:48:00,
2013-06-09 17:53:00,90.5,39.7,30.06,NNE,24,1.1,0.0,17,0.00,-RA,OVC,0.00,WeatherDisplay:10.37,2013-06-09 23:53:00,
2013-06-09 17:58:00,90.9,38.5,30.06,NNE,24,3.5,3.5,16,0.00,-RA,OVC,0.00,WeatherDisplay:10.37,2013-06-09 23:58:00,
2013-06-09 18:03:00,91.0,41.6,30.06,NNE,24,2.3,2.3,18,0.00,-RA,OVC,0.00,WeatherDisplay:10.37,2013-06-10 00:03:00,
2013-06-09 18:08:00,90.7,39.9,30.06,NNE,23,3.5,3.5,17,0.00,-RA,OVC,0.00,WeatherDisplay:10.37,2013-06-10 00:08:00,
2013-06-09 18:13:00,90.6,38.3,30.06,NNE,23,2.3,2.3,16,0.00,-RA,OVC,0.00,WeatherDisplay:10.37,2013-06-10 00:13:00,
2013-06-09 18:18:00,90.7,39.9,30.06,NNE,23,0.0,0.0,17,0.00,-RA,OVC,0.00,WeatherDisplay:10.37,2013-06-10 00:18:00,
2013-06-09 18:23:00,90.8,38.4,30.06,NNE,23,1.1,1.1,16,0.00,-RA,OVC,0.00,WeatherDisplay:10.37,2013-06-10 00:23:00,
2013-06-09 18:28:00,90.9,38.5,30.06,NNE,24,3.5,3.5,16,0.00,-RA,OVC,0.00,WeatherDisplay:10.37,2013-06-10 00:28:00,
2013-06-09 18:33:00,91.1,37.0,30.06,NNE,24,1.1,1.1,15,0.00,-RA,OVC,0.00,WeatherDisplay:10.37,2013-06-10 00:33:00,
2013-06-09 18:38:00,91.1,38.7,30.06,NNE,24,1.1,0.0,16,0.00,-RA,OVC,0.00,WeatherDisplay:10.37,2013-06-10 00:38:00,
2013-06-09 18:43:00,91.0,38.6,30.06,NNE,24,1.1,1.1,16,0.00,-RA,OVC,0.00,WeatherDisplay:10.37,2013-06-10 00:43:00,
2013-06-09 18:48:00,90.6,38.3,30.06,NNE,24,1.1,1.1,16,0.00,-RA,OVC,0.00,WeatherDisplay:10.37,2013-06-10 00:48:00,
2013-06-09 18:53:00,90.5,38.2,30.06,NNE,22,3.5,3.5,16,0.00,-RA,OVC,0.00,WeatherDisplay:10.37,2013-06-10 00:53:00,
2013-06-09 18:58:00,90.4,38.1,30.06,NNE,22,2.3,2.3,16,0.00,-RA,OVC,0.00,WeatherDisplay:10.37,2013-06-10 00:58:00,
2013-06-09 19:03:00,90.0,39.3,30.06,NNE,12,4.6,4.6,17,0.00,-RA,OVC,0.00,WeatherDisplay:10.37,2013-06-10 01:03:00,
2013-06-09 19:08:00,89.5,38.9,30.06,NNE,12,3.5,0.0,17,0.00,-RA,OVC,0.00,WeatherDisplay:10.37,2013-06-10 01:08:00,
2013-06-09 19:13:00,89.1,40.1,30.06,North,9,1.1,0.0,18,0.00,-RA,OVC,0.00,WeatherDisplay:10.37,2013-06-10 01:13:00,
2013-06-09 19:18:00,89.0,40.0,30.06,North,9,1.1,0.0,18,0.00,-RA,OVC,0.00,WeatherDisplay:10.37,2013-06-10 01:18:00,
2013-06-09 19:23:00,89.1,40.1,30.06,North,9,1.1,0.0,18,0.00,-RA,OVC,0.00,WeatherDisplay:10.37,2013-06-10 01:23:00,
2013-06-09 19:28:00,88.7,39.7,30.06,North,9,1.1,1.1,18,0.00,-RA,OVC,0.00,WeatherDisplay:10.37,2013-06-10 01:28:00,
2013-06-09 19:33:00,88.5,42.3,30.06,North,9,0.0,0.0,20,0.00,-RA,OVC,0.00,WeatherDisplay:10.37,2013-06-10 01:33:00,
2013-06-09 19:38:00,88.2,40.7,30.06,North,9,0.0,0.0,19,0.00,-RA,OVC,0.00,WeatherDisplay:10.37,2013-06-10 01:38:00,
2013-06-09 19:43:00,87.4,42.7,30.06,North,9,0.0,0.0,21,0.00,-RA,OVC,0.00,WeatherDisplay:10.37,2013-06-10 01:43:00,
2013-06-09 19:48:00,86.5,44.3,30.06,North,9,1.1,0.0,23,0.00,-RA,OVC,0.00,WeatherDisplay:10.37,2013-06-10 01:48:00,
2013-06-09 19:53:00,85.4,43.4,30.06,North,9,1.1,1.1,23,0.00,-RA,OVC,0.00,WeatherDisplay:10.37,2013-06-10 01:53:00,
2013-06-09 19:58:00,84.6,43.8,30.06,North,9,1.1,1.1,24,0.00,-RA,OVC,0.00,WeatherDisplay:10.37,2013-06-10 01:58:00,
2013-06-09 20:03:00,83.8,43.2,29.99,North,9,0.0,0.0,24,0.00,-RA,OVC,0.00,WeatherDisplay:10.37,2013-06-10 02:03:00,
2013-06-09 20:08:00,83.2,44.7,29.99,North,9,0.0,0.0,26,0.00,-RA,OVC,0.00,WeatherDisplay:10.37,2013-06-10 02:08:00,
2013-06-09 20:13:00,82.3,46.9,29.99,North,9,1.1,1.1,29,0.00,-RA,OVC,0.00,WeatherDisplay:10.37,2013-06-10 02:13:00,
2013-06-09 20:18:00,81.3,45.1,29.99,North,9,0.0,0.0,28,0.00,-RA,OVC,0.00,WeatherDisplay:10.37,2013-06-10 02:18:00,
2013-06-09 20:23:00,80.6,44.5,29.99,North,9,0.0,0.0,28,0.00,-RA,OVC,0.00,WeatherDisplay:10.37,2013-06-10 02:23:00,
2013-06-09 20:28:00,79.8,45.6,29.99,North,9,0.0,0.0,30,0.00,-RA,OVC,0.00,WeatherDisplay:10.37,2013-06-10 02:28:00,
2013-06-09 20:33:00,79.1,47.5,29.99,North,9,0.0,0.0,33,0.00,-RA,OVC,0.00,WeatherDisplay:10.37,2013-06-10 02:33:00,
2013-06-09 20:38:00,78.3,46.8,29.99,North,9,0.0,0.0,33,0.00,-RA,OVC,0.00,WeatherDisplay:10.37,2013-06-10 02:38:00,
2013-06-09 20:43:00,77.5,46.9,29.99,North,9,0.0,0.0,34,0.00,-RA,OVC,0.00,WeatherDisplay:10.37,2013-06-10 02:43:00,
2013-06-09 20:48:00,76.7,45.4,29.99,North,9,0.0,0.0,33,0.00,-RA,OVC,0.00,WeatherDisplay:10.37,2013-06-10 02:48:00,
2013-06-09 20:53:00,76.2,45.8,29.99,North,9,0.0,0.0,34,0.00,-RA,OVC,0.00,WeatherDisplay:10.37,2013-06-10 02:53:00,
2013-06-09 20:58:00,75.5,45.2,29.99,North,9,0.0,0.0,34,0.00,-RA,OVC,0.00,WeatherDisplay:10.37,2013-06-10 02:58:00,
2013-06-09 21:03:00,75.1,45.6,29.99,North,9,0.0,0.1,35,0.00,-RA,OVC,0.00,WeatherDisplay:10.37,2013-06-10 03:03:00,
2013-06-09 21:08:00,74.6,45.1,29.99,North,9,0.0,0.0,35,0.00,-RA,OVC,0.00,WeatherDisplay:10.37,2013-06-10 03:08:00,
2013-06-09 21:13:00,74.3,45.6,29.99,North,9,1.1,0.0,36,0.00,-RA,OVC,0.00,WeatherDisplay:10.37,2013-06-10 03:13:00,
2013-06-09 21:18:00,73.9,46.0,29.99,North,9,1.1,0.0,37,0.00,-RA,OVC,0.00,WeatherDisplay:10.37,2013-06-10 03:18:00,
2013-06-09 21:23:00,73.4,44.8,29.99,North,9,0.0,0.0,36,0.00,-RA,OVC,0.00,WeatherDisplay:10.37,2013-06-10 03:23:00,
2013-06-09 21:28:00,73.0,45.9,29.99,North,9,0.0,0.0,38,0.00,-RA,OVC,0.00,WeatherDisplay:10.37,2013-06-10 03:28:00,
2013-06-09 21:33:00,72.5,45.4,29.99,North,9,0.0,0.0,38,0.00,-RA,OVC,0.00,WeatherDisplay:10.37,2013-06-10 03:33:00,
2013-06-09 21:38:00,72.1,45.8,29.99,North,9,0.0,0.0,39,0.00,-RA,OVC,0.00,WeatherDisplay:10.37,2013-06-10 03:38:00,
2013-06-09 21:43:00,71.7,45.4,29.99,North,9,0.0,0.0,39,0.00,-RA,OVC,0.00,WeatherDisplay:10.37,2013-06-10 03:43:00,
2013-06-09 21:48:00,71.3,45.7,29.99,North,9,0.0,0.0,40,0.00,-RA,OVC,0.00,WeatherDisplay:10.37,2013-06-10 03:48:00,
2013-06-09 21:53:00,70.8,45.3,29.99,North,9,0.0,0.0,40,0.00,-RA,OVC,0.00,WeatherDisplay:10.37,2013-06-10 03:53:00,
2013-06-09 21:58:00,70.4,44.9,29.99,North,9,0.0,0.0,40,0.00,-RA,OVC,0.00,WeatherDisplay:10.37,2013-06-10 03:58:00,
2013-06-09 22:01:00,70.2,44.7,29.99,North,9,0.0,0.0,40,0.00,-RA,OVC,0.00,WeatherDisplay:10.37,2013-06-10 04:01:00,
2013-06-09 22:06:00,69.7,44.9,29.99,North,9,0.0,0.0,41,0.00,-RA,OVC,0.00,WeatherDisplay:10.37,2013-06-10 04:06:00,
2013-06-09 22:11:00,69.2,45.1,29.99,North,9,0.0,0.0,42,0.00,-RA,OVC,0.00,WeatherDisplay:10.37,2013-06-10 04:11:00,
2013-06-09 22:16:00,68.8,46.0,29.99,North,9,0.0,0.0,44,0.00,-RA,OVC,0.00,WeatherDisplay:10.37,2013-06-10 04:16:00,
2013-06-09 22:21:00,68.3,46.7,29.99,North,9,0.0,0.0,46,0.00,-RA,OVC,0.00,WeatherDisplay:10.37,2013-06-10 04:21:00,
2013-06-09 22:27:00,67.9,46.9,29.99,North,9,0.0,0.0,47,0.00,-RA,OVC,0.00,WeatherDisplay:10.37,2013-06-10 04:27:00,
2013-06-09 22:32:00,67.6,46.6,29.99,North,9,2.3,0.0,47,0.00,-RA,OVC,0.00,WeatherDisplay:10.37,2013-06-10 04:32:00,
2013-06-09 22:37:00,67.5,47.7,29.99,North,9,1.1,1.1,49,0.00,-RA,OVC,0.00,WeatherDisplay:10.37,2013-06-10 04:37:00,
2013-06-09 22:42:00,67.4,47.0,29.99,North,9,2.3,0.0,48,0.00,-RA,OVC,0.00,WeatherDisplay:10.37,2013-06-10 04:42:00,
2013-06-09 22:47:00,67.6,44.3,29.99,North,9,1.1,0.0,43,0.00,-RA,OVC,0.00,WeatherDisplay:10.37,2013-06-10 04:47:00,
2013-06-09 22:52:00,67.7,44.4,29.99,North,9,1.1,1.1,43,0.00,-RA,OVC,0.00,WeatherDisplay:10.37,2013-06-10 04:52:00,
2013-06-09 22:57:00,68.0,42.1,29.99,North,9,2.3,2.3,39,0.00,-RA,OVC,0.00,WeatherDisplay:10.37,2013-06-10 04:57:00,
2013-06-09 23:02:00,68.5,41.9,29.99,North,9,0.0,0.0,38,0.00,-RA,OVC,0.00,WeatherDisplay:10.37,2013-06-10 05:02:00,
2013-06-09 23:07:00,68.6,43.3,29.99,North,9,0.0,0.0,40,0.00,-RA,OVC,0.00,WeatherDisplay:10.37,2013-06-10 05:07:00,
2013-06-09 23:12:00,68.6,42.0,29.99,North,9,1.1,0.0,38,0.00,-RA,OVC,0.00,WeatherDisplay:10.37,2013-06-10 05:12:00,
2013-06-09 23:17:00,68.7,44.0,29.99,North,9,0.0,0.0,41,0.00,-RA,OVC,0.00,WeatherDisplay:10.37,2013-06-10 05:17:00,
2013-06-09 23:22:00,68.6,43.3,29.99,North,9,0.0,0.0,40,0.00,-RA,OVC,0.00,WeatherDisplay:10.37,2013-06-10 05:22:00,
2013-06-09 23:27:00,68.3,43.0,29.99,North,9,0.0,0.0,40,0.00,-RA,OVC,0.00,WeatherDisplay:10.37,2013-06-10 05:27:00,
2013-06-09 23:32:00,67.9,43.3,29.99,North,9,0.0,0.0,41,0.00,-RA,OVC,0.00,WeatherDisplay:10.37,2013-06-10 05:32:00,
2013-06-09 23:37:00,67.3,41.5,29.99,North,9,0.0,0.0,39,0.00,-RA,OVC,0.00,WeatherDisplay:10.37,2013-06-10 05:37:00,
2013-06-09 23:42:00,67.0,40.5,29.99,North,9,1.1,0.0,38,0.00,-RA,OVC,0.00,WeatherDisplay:10.37,2013-06-10 05:42:00,
2013-06-09 23:47:00,67.0,40.5,29.99,North,9,0.0,0.0,38,0.00,-RA,OVC,0.00,WeatherDisplay:10.37,2013-06-10 05:47:00,
2013-06-09 23:52:00,66.9,40.5,29.99,North,9,0.0,0.0,38,0.00,-RA,OVC,0.00,WeatherDisplay:10.37,2013-06-10 05:52:00,
2013-06-09 23:57:00,66.7,40.9,29.99,North,9,0.0,0.0,39,0.00,-RA,OVC,0.00,WeatherDisplay:10.37,2013-06-10 05:57:00,